Regional Weather Roundup
Issued by NWS

Home | Current Version | Previous Version | Text Only | Print | Product List | Glossary Off
Versions: 1 2 3 4 5 6 7 8 9 10 11 12 13 14 15 16 17 18 19 20 21 22 23 24 25 26 27 28 29 30 31 32 33 34 35 36 37 38 39 40 41 42 43 44 45 46 47 48 49 50

000
ASUS43 KMKX 281000
RWRWI

WISCONSIN REGIONAL WEATHER ROUNDUP
NATIONAL WEATHER SERVICE MILWAUKEE/SULLIVAN WI
500 AM CDT SUN MAY 28 2017

NOTE: "FAIR" INDICATES FEW OR NO CLOUDS BELOW 12,000 FEET WITH NO
SIGNIFICANT WEATHER AND/OR OBSTRUCTIONS TO VISIBILITY.

WIZ001-002-006>008-014>016-023>028-281100-
NORTHWEST WISCONSIN

CITY           SKY/WX    TMP DP  RH WIND       PRES   REMARKS
SUPERIOR ARPT  NOT AVBL
ASHLAND        CLOUDY    61  48  62 S8        29.72F
HAYWARD        CLOUDY    57  49  74 SW5       29.74F
SIREN          CLOUDY    57  46  67 CALM      29.72F
CUMBERLAND     CLOUDY    54  46  76 S5        29.75F
RICE LAKE      CLOUDY    56  51  81 SE5       29.77F
CHETEK         CLOUDY    55  53  95 CALM      29.76F
LADYSMITH      LGT RAIN  55  52  91 SE3       29.79F
EAU CLAIRE     NOT AVBL
MENOMONIE      CLOUDY    57  51  82 SE3       29.77F
NEW RICHMOND   CLOUDY    55  46  71 SW5       29.75F
OSCEOLA        CLEAR     55  48  78 SE5       29.76F
$$

WIZ003>005-009-010-017-018-281100-
NORTH CENTRAL WISCONSIN

CITY           SKY/WX    TMP DP  RH WIND       PRES   REMARKS
MANITOWISH WTR CLOUDY    53  53 100 SW3       29.76F
ARBOR VITAE    CLOUDY    57  52  84 CALM      29.74F
WOODRUFF       CLOUDY    57  52  84 CALM      29.74F
RHINELANDER    LGT RAIN  55  51  86 S3        29.76F
EAGLE RIVER    PTCLDY    52  50  93 CALM      29.75F
LAND O LAKES   CLOUDY    52  51  95 CALM      29.77F
PHILLIPS       DRIZZLE   54  50  85 SW6       29.77S
TOMAHAWK       CLOUDY    51  49  94 CALM      29.77F
MEDFORD        CLOUDY    55  49  83 CALM      29.78S
MERRILL        LGT RAIN  55  54  98 CALM      29.78S
$$

WIZ029-030-035-036-043>047-281100-
CENTRAL WISCONSIN

CITY           SKY/WX    TMP DP  RH WIND       PRES   REMARKS
WAUSAU         LGT RAIN  56  53  90 SW8       29.78R
MOSINEE        LGT RAIN  54  54 100 SW7       29.80S
MARSHFIELD     LGT RAIN  55  52  89 CALM      29.78S
STEVENS POINT  RAIN      55  55 100 CALM      29.80S
WAUPACA        LGT RAIN  59  57  93 CALM      29.78F
WAUTOMA        LGT RAIN  57  55  93 MISG        N/A
WISC RAPIDS    LGT RAIN  56  55  97 W3        29.80F FOG
CAMP DOUGLAS   NOT AVBL
$$

WIZ011>013-019>022-031-037>040-048>050-281100-
NORTHEAST WISCONSIN

CITY           SKY/WX    TMP DP  RH WIND       PRES   REMARKS
ANTIGO         CLOUDY    54  54  98 CALM      29.78S
SHAWANO        DRIZZLE   60  55  86 CALM      29.77S
OCONTO         CLOUDY    57  54  87 CALM      29.75S
STURGEON BAY   HVY RAIN  59  54  83 S6        29.76S
GREEN BAY      CLOUDY    60  57  89 W3        29.76F
MANITOWOC      NOT AVBL
APPLETON       CLOUDY    59  50  72 CALM      29.76F
CLINTONVILLE   LGT RAIN  57  54  88 NW3       29.77F
OSHKOSH        CLOUDY    59  54  83 CALM      29.76F
$$

WIZ032>034-041-042-053>061-281100-
SOUTHWEST WISCONSIN

CITY           SKY/WX    TMP DP  RH WIND       PRES   REMARKS
LA CROSSE      CLOUDY    58  56  93 SE6       29.78F
SPARTA         CLOUDY    54  54 100 CALM      29.79F
VIROQUA        CLOUDY    56  53  88 CALM      29.80S
BOSCOBEL       CLOUDY    59  57  93 CALM      29.79F
PRAIRIE DU CHI CLOUDY    58  56  94 CALM      29.79S FOG
PLATTEVILLE    CLOUDY    58  56  96 N12       29.79F
$$

WIZ056-057-062-063-064-067-068-281100-
SOUTH CENTRAL WISCONSIN

CITY           SKY/WX    TMP DP  RH WIND       PRES   REMARKS
REEDSBURG      CLOUDY    56  56 100 CALM      29.78F
BARABOO/DELLS  CLOUDY    56  54  92 CALM      29.78F
LONE ROCK      LGT RAIN  58  56  93 CALM      29.79F
MINERAL POINT  LGT RAIN  55  55 100 N6        29.79F
MADISON        TSTM      58  54  86 NW6       29.76F
MIDDLETON      CLOUDY    58  54  86 W9        29.80R
WATERTOWN      CLOUDY    59  59 100 E3        29.74F
MONROE         MOCLDY    59  59 100 NW6       29.75F
JANESVILLE     MOCLDY    61  61 100 CALM      29.73F
$$

WIZ051-052-058>065-066-070>072-281100-
SOUTHEAST WISCONSIN

CITY           SKY/WX    TMP DP  RH WIND       PRES   REMARKS
MILWAUKEE      CLOUDY    60  54  80 S5        29.75F
WAUKESHA       CLOUDY    59  54  82 CALM      29.76F
MILWAUKEE/TIMM   N/A     61  52  72 CALM      29.76F
RACINE         CLOUDY    57  50  77 CALM      29.76F
KENOSHA        CLEAR     53  50  89 CALM      29.74F
FOND DU LAC    CLOUDY    60  55  83 CALM      29.76F
SHEBOYGAN      CLOUDY    60  58  92 N5        29.75F
WEST BEND      CLOUDY    59  55  88 CALM      29.76F
JUNEAU         CLOUDY    60  55  82 N5        29.76F
$$

LSZ147-162-281100-
LAKE SUPERIOR

STATION/POSITION TIME  TEMP    WIND        PRES    WAVE
                       AIR SEA DIR/SP/G            HT/PER
                 (UTC) (F)     (DEG/KT/KT) (MB)    (FT/S)
W MID LAKE BUOY  0850   46 37  230/  8/  8 1006.6F   0
DEVILS ISLAND    0900   53     310/  4/  5 1006.4S
PORT WING        0930          130/  2/  2 1005.8F
SAXON HARBOR     0930   59     180/  3/  7 1006.8S
$$

LMZ867-665-643>646-281100-
LAKE MICHIGAN

STATION/POSITION TIME  TEMP    WIND        PRES    WAVE
                       AIR SEA DIR/SP/G            HT/PER
                 (UTC) (F)     (DEG/KT/KT) (MB)    (FT/S)
CHAMBERS ISLAND  0930   56      CALM  /  3 1006.8F
N MID LAKE BUOY  0850   45 42  180/  6/  8 1008.9F   1
NORTHPORT PIER   0940   54     310/  8/ 10 1007.5F
SISTER BAY       0736   57     350/  5/  6   N/A
KEWAUNEE LAKESHO 0930   59     330/  5/  8 1007.1F
SHEBOYGAN LAKESH 0900   61     160/  7/  8 1008.2R
PORT WASHINGTON  0940   55      CALM  /  3 1008.5F
ATWATER BUOY     0809   53     170/  4/  6 1008.9F
MILWAUKEE LAKESH 0930   55     190/  3/  4   N/A
S MID LAKE BUOY  0850   54 49  170/  2/  2 1008.8F   0
KENOSHA   LAKESH 0900   58     190/  1/  2 1008.1
$$

TC  - TEMPERATURE IN CELSIUS
VSB - VISIBILITY IN STATUTE MILES
WCI - WIND CHILL INDEX
HX  - HEAT INDEX





USA.gov is the U.S. government's official web portal to all federal, state and local government web resources and services.